Weather History for Concordia, KS

Change the Weather History Date:

Sunday, December 23, 2012

  Actual Average Record
Temperature  
Mean Temperature 19 °F 29 °F  
Max Temperature 25 °F 38 °F 82 °F (1964)
Min Temperature 13 °F 19 °F -17 °F (1989)
Degree Days  
Heating Degree Days 46 36  
Month to date heating degree days 645 791  
Since 1 July heating degree days 1675 1883  
Cooling Degree Days 0 0  
Month to date cooling degree days 0 0  
Year to date cooling degree days 1643 1349  
Moisture  
Dew Point 13 °F    
Average Humidity 80    
Maximum Humidity 92    
Minimum Humidity 68    
Precipitation  
Precipitation 0.00 in 0.02 in 0.61 in (1965)
Month to date precipitation 0.45 0.68  
Year to date precipitation 23.53 27.72  
Snow  
Snow 0.00 in 0.10 in 0.50 in (1948)
Month to date snowfall 1.0 2.7  
Year to date snowfall 6.8 19.1  
Since 1 July snowfall 1.0 5.4  
Snow Depth T in    
Sea Level Pressure  
Sea Level Pressure 30.04 in    
Wind  
Wind Speed 8 mph (North)    
Max Wind Speed 14 mph    
Max Gust Speed 18 mph    
Visibility 7 miles    
Events      
T = Trace of Precipitation, MM = Missing Value Source: NWS Daily Summary

Daily Weather History Graph

Daily Weather History Graph

Search for Another Location

Airport:

Trip Planner

Search our weather history database for the weather conditions in past years. The results will help you decide how hot, cold, wet, or windy it might be!

Date:

Astronomy

Dec. 23, 2012 Rise Set
Actual Time 7:48 AM CST 5:11 PM CST
Civil Twilight 7:18 AM CST 5:41 PM CST
Nautical Twilight 6:44 AM CST 6:15 PM CST
Astronomical Twilight 6:11 AM CST 6:48 PM CST
Moon 2:02 PM CST (12/23) 3:33 AM CST (12/23)
Length of Visible Light 10h 23m
Length of Day
9h 22m
Waxing Gibbous, 82% of the Moon is Illuminated
Dec 23
Waxing Gibbous
Dec 28
Full
Jan 4
Last Quarter
Jan 11
New
Jan 18
First Quarter

Hourly Weather History & Observations

Time (CST) Temp. Windchill Dew Point Humidity Pressure Visibility Wind Dir Wind Speed Gust Speed Precip Events Conditions
12:55 AM 21.9 °F 11.7 °F 18.0 °F 85% 30.04 in 6.0 mi North 9.2 mph - N/A   Clear
1:55 AM 19.9 °F 11.1 °F 16.0 °F 85% 30.03 in 6.0 mi North 6.9 mph - N/A   Clear
2:55 AM 19.0 °F 9.0 °F 15.1 °F 85% 30.03 in 5.0 mi NNW 8.1 mph - N/A   Clear
3:55 AM 17.1 °F 6.6 °F 14.0 °F 88% 30.03 in 6.0 mi North 8.1 mph - N/A   Clear
4:55 AM 16.0 °F 5.3 °F 12.0 °F 84% 30.04 in 6.0 mi North 8.1 mph - N/A   Clear
5:34 AM 15.8 °F 5.1 °F 12.2 °F 86% 29.99 in 7.0 mi North 8.1 mph - N/A   Scattered Clouds
5:42 AM 15.8 °F 4.2 °F 12.2 °F 86% 29.99 in 7.0 mi North 9.2 mph - N/A   Mostly Cloudy
5:55 AM 16.0 °F 3.6 °F 12.0 °F 84% 30.04 in 7.0 mi North 10.4 mph - N/A   Overcast
6:55 AM 14.0 °F 2.9 °F 10.9 °F 88% 30.05 in 6.0 mi North 8.1 mph - N/A   Partly Cloudy
7:55 AM 12.9 °F 0.7 °F 10.0 °F 88% 30.06 in 6.0 mi North 9.2 mph - N/A   Clear
8:55 AM 14.0 °F 2.9 °F 10.0 °F 84% 30.06 in 6.0 mi North 8.1 mph - N/A   Clear
9:55 AM 16.0 °F 8.8 °F 12.0 °F 84% 30.05 in 7.0 mi ENE 4.6 mph - N/A   Clear
10:55 AM 19.0 °F 11.1 °F 14.0 °F 81% 30.06 in 7.0 mi NNW 5.8 mph - N/A   Clear
12:55 PM 24.1 °F 14.4 °F 16.0 °F 71% 30.01 in 8.0 mi NNW 9.2 mph - N/A   Clear
1:55 PM 24.1 °F 14.4 °F 16.0 °F 71% 30.00 in 8.0 mi NNW 9.2 mph - N/A   Clear
2:55 PM 24.1 °F 13.1 °F 16.0 °F 71% 29.99 in 8.0 mi North 11.5 mph - N/A   Clear
3:55 PM 23.0 °F 13.1 °F 15.1 °F 72% 29.99 in 8.0 mi NNW 9.2 mph - N/A   Clear
4:55 PM 21.9 °F 11.7 °F 15.1 °F 75% 30.01 in 8.0 mi NNW 9.2 mph - N/A   Clear
5:55 PM 21.0 °F 12.4 °F 14.0 °F 74% 30.02 in 9.0 mi NNW 6.9 mph - N/A   Clear
6:55 PM 19.9 °F 11.1 °F 14.0 °F 78% 30.04 in 9.0 mi North 6.9 mph - N/A   Clear
7:55 PM 19.0 °F 11.1 °F 12.9 °F 77% 30.05 in 8.0 mi North 5.8 mph - N/A   Clear
8:55 PM 18.0 °F 11.1 °F 12.0 °F 78% 30.07 in 8.0 mi NNW 4.6 mph - N/A   Clear
9:55 PM 17.1 °F 7.6 °F 12.0 °F 81% 30.07 in 7.0 mi NNW 6.9 mph - N/A   Clear
10:55 PM 16.0 °F 5.3 °F 10.9 °F 81% 30.09 in 7.0 mi NW 8.1 mph - N/A   Clear
11:55 PM 16.0 °F 5.3 °F 10.9 °F 81% 30.09 in 7.0 mi NNW 8.1 mph - N/A   Clear